Norfolk, NE

5:34 PM CST on December 10, 2016 (GMT -0600)
Stefan Memorial

Weather History for KOFK - June, 2014

Change the Weather History Date:

Thursday, June 12, 2014

  Actual Average Record
Temperature  
Mean Temperature 59 °F 69 °F  
Max Temperature 72 °F 81 °F 99 °F (1952)
Min Temperature 46 °F 58 °F 41 °F (1903)
Degree Days  
Heating Degree Days 6 1  
Month to date heating degree days 20 21  
Since 1 June heating degree days 20 21  
Since 1 July heating degree days 6952 6634  
Cooling Degree Days 0 5  
Month to date cooling degree days 40 50  
Year to date cooling degree days 137 111  
Since 1 June cooling degree days 40 50  
Growing Degree Days 12 (Base 50)    
Moisture  
Dew Point 46 °F    
Average Humidity 54    
Maximum Humidity 78    
Minimum Humidity 29    
Precipitation  
Precipitation 0.00 in 0.14 in 2.08 in (1924)
Month to date precipitation 3.83 1.75  
Year to date precipitation 9.32 11.45  
Snow  
Snow 0.00 in 0.00 in - ()
Month to date snowfall 0.0 0.0  
Since 1 July snowfall 19.9 30.5  
Snow Depth 0.00 in    
Sea Level Pressure  
Sea Level Pressure 30.01 in    
Wind  
Wind Speed 15 mph (NNW)    
Max Wind Speed 23 mph    
Max Gust Speed 31 mph    
Visibility 10 miles    
Events Rain    
T = Trace of Precipitation, MM = Missing Value Source: NWS Daily Summary

Daily Weather History Graph

Daily Weather History Graph

Search for Another Location

Airport or City:

Trip Planner

Search our weather history database for the weather conditions in past years. The results will help you decide how hot, cold, wet, or windy it might be!

Date:

Astronomy

Jun. 12, 2014 Rise Set
Actual Time 5:53 AM CDT 9:05 PM CDT
Civil Twilight 5:19 AM CDT 9:40 PM CDT
Nautical Twilight 4:35 AM CDT 10:24 PM CDT
Astronomical Twilight 3:42 AM CDT 11:17 PM CDT
Moon 8:38 PM CDT (6/12) 5:37 AM CDT (6/12)
Length of Visible Light 16h 20m
Length of Day
15h 12m
Full, 100% of the Moon is Illuminated
Jun 12
Full
Jun 12
Full
Jun 19
Last Quarter
Jun 27
New
Jul 5
First Quarter

Hourly Weather History & Observations

Time (CDT) Temp. Dew Point Humidity Pressure Visibility Wind Dir Wind Speed Gust Speed Precip Events Conditions
12:56 AM 63.0 °F 53.1 °F 70% 29.90 in 10.0 mi NNW 11.5 mph - N/A   Partly Cloudy
1:56 AM 62.1 °F 52.0 °F 70% 29.90 in 10.0 mi NNW 12.7 mph 21.9 mph N/A   Clear
2:52 AM 60.8 °F 53.6 °F 77% 29.94 in 10.0 mi NW 10.4 mph - N/A   Mostly Cloudy
2:56 AM 61.0 °F 53.1 °F 75% 29.91 in 10.0 mi NW 9.2 mph - N/A   Mostly Cloudy
3:56 AM 59.0 °F 53.1 °F 81% 29.91 in 10.0 mi NNW 16.1 mph 24.2 mph 0.00 in Rain Light Rain
4:04 AM 59.0 °F 53.1 °F 81% 29.94 in 10.0 mi NW 12.7 mph - 0.00 in   Scattered Clouds
4:56 AM 57.9 °F 52.0 °F 81% 29.95 in 10.0 mi NW 16.1 mph 25.3 mph 0.00 in   Partly Cloudy
5:56 AM 55.0 °F 48.0 °F 77% 29.98 in 10.0 mi NNW 21.9 mph 31.1 mph 0.00 in   Clear
6:37 AM 55.9 °F 48.9 °F 77% 30.03 in 10.0 mi NNW 10.4 mph - N/A   Mostly Cloudy
6:56 AM 57.0 °F 48.9 °F 74% 30.01 in 10.0 mi NNW 15.0 mph - N/A   Overcast
7:22 AM 57.0 °F 50.0 °F 77% 30.05 in 10.0 mi NW 11.5 mph - N/A   Overcast
7:56 AM 57.0 °F 50.0 °F 77% 30.04 in 10.0 mi NW 17.3 mph 24.2 mph 0.00 in Rain Light Rain
9:56 AM 61.0 °F 46.0 °F 58% 30.04 in 10.0 mi NNW 18.4 mph - 0.00 in Rain Light Rain
10:56 AM 64.0 °F 44.1 °F 48% 30.05 in 10.0 mi NNW 20.7 mph 27.6 mph 0.00 in   Partly Cloudy
11:56 AM 66.0 °F 46.0 °F 48% 30.05 in 10.0 mi NNW 20.7 mph 28.8 mph 0.00 in Rain Light Rain
12:56 PM 68.0 °F 45.0 °F 43% 30.05 in 10.0 mi NNW 19.6 mph 25.3 mph 0.00 in   Clear
1:56 PM 69.1 °F 43.0 °F 39% 30.04 in 10.0 mi NNW 21.9 mph - 0.00 in   Clear
2:56 PM 70.0 °F 44.1 °F 39% 30.04 in 10.0 mi NNW 18.4 mph 28.8 mph N/A   Clear
3:56 PM 71.1 °F 42.1 °F 35% 30.03 in 10.0 mi NNW 20.7 mph 29.9 mph N/A   Clear
4:56 PM 72.0 °F 42.1 °F 34% 30.03 in 10.0 mi NNW 13.8 mph 24.2 mph N/A   Clear
5:56 PM 72.0 °F 39.9 °F 31% 30.03 in 10.0 mi North 18.4 mph - N/A   Clear
6:56 PM 71.1 °F 37.9 °F 30% 30.04 in 10.0 mi North 18.4 mph - N/A   Clear
7:56 PM 68.0 °F 36.0 °F 31% 30.05 in 10.0 mi North 16.1 mph 20.7 mph N/A   Clear
8:56 PM 63.0 °F 37.0 °F 38% 30.06 in 10.0 mi North 5.8 mph - N/A   Clear
9:56 PM 57.0 °F 39.0 °F 51% 30.08 in 10.0 mi NW 3.5 mph - N/A   Clear
10:56 PM 51.1 °F 41.0 °F 68% 30.09 in 10.0 mi WSW 3.5 mph - N/A   Clear
11:56 PM 50.0 °F 41.0 °F 71% 30.10 in 10.0 mi West 3.5 mph - N/A   Clear